Back to catalog

STARLINK-37761

AliveCommunicationsVLEO
NORAD 69200·PAYLOAD·🇺🇸 United States

Launched May 25, 2026 from Cape Canaveral Space Force Station

Loading…

Next Passes (next 24 hours)

TLE

FreshSource: CelesTrak SupGP

Epoch: Sep 14, 2026, 22:47 UTC

1 69200C 26114U   26257.94979167 -.00068256  00000+0 -20168-2 0  2579
2 69200  53.1573 139.6009 0001317  88.2368 326.3667 15.34422345    15

Track STARLINK-37761 in real time with AllMySat

Download on the App Store